Weather in Khandagayty

Russia / Tyva Republic     50°43′51″N   92°04′36″E
temp.,
°C
wind,
m/s
gust,
m/s
humid.,
%
clouds,
%
prec.,
mm/h
press.,
hPa
HPBL,
m
5 march, fri
fri501:00−18nne129893 0.1 103020
04:00−19e119994 0.1 102921
07:00−17se119797 0.3 103020
10:00−15ese2293100 0.2 1029316
13:00−14ese3393100 0.3 1026379
16:00−14e2289100 0.1 1024416
19:00−16nnw2292100 0.1 102729
22:00−14wnw227467 0.0 103121
6 march, sat
sat601:00−16nne117033 0.0 103420
04:00−20nnw118412 0.0 103320
07:00−19n22899 0.0 103520
10:00−14e118376 0.0 103373
13:00−12se228388 0.0 1030301
16:00−13ese228775 0.0 1026257
19:00−19n119856 0.0 102720
22:00−18n228844 0.0 102720
7 march, sun
sun701:00−19n228737 0.0 102720
04:00−19n229421 0.0 102620
07:00−20n229533 0.0 102720
10:00−15nne118550 0.0 1027100
13:00−13ese118144 0.0 1025207
16:00−13ese118236 0.0 1024151
19:00−18n127822 0.0 102720
22:00−17n225911 0.0 102920
8 march, mon
mon801:00−18n226250 0.0 102920
04:00−19nne117095 0.0 102920
07:00−19n117966 0.0 103120
10:00−14ene11791 0.0 102974
13:00−12se21878 0.0 1027191
16:00−12se219012 0.0 1024169
19:00−17nne22956 0.0 102520
22:00−17n22845 0.0 102520
9 march, tue
tue901:00−17n228519 0.0 102520
04:00−16nnw1180100 0.0 102620
07:00−14wsw0167100 0.0 102821
10:00−12s117867 0.0 102834
13:00−10sse228873 0.0 1027119
16:00−9se11853 0.0 102687
19:00−14nne118332 0.0 102821
22:00−15n11780 0.0 102921